If you wish to contribute or participate in the discussions about articles you are invited to join SKYbrary as a registered user

 Actions

Lille-Lesquin Airport

From SKYbrary Wiki

LFQQ
Airport
ICAO: LFQQ – IATA: LIL
Summary
Name Lille-Lesquin Airport
Region Europe
Territory France FR.gif
Location , Nord-Pas-de-Calais
Serving Lille
Elevation 47.854 m
157 ft
157 ft47.854 m
Type medium airport
Coordinates 50° 33' 42.99" N, 3° 5' 22.00" E
Runways
Designator Length Width Surface ROPS
2/20 1580 m5,183.727 ft
30 m98.425 ft
ASP yes/yes
8/26 2825 m9,268.373 ft
45 m147.638 ft
ASP yes/yes


METAR
Observation LFQQ 222330Z AUTO 18002KT CAVOK 14/10 Q1026 NOSIG
Station Lille
Date/Time 22 August 2019 23:30:00
Wind direction 180°
Wind speed 02 kts
Lowest cloud amount clouds and visibility OK
Temperature 14°C
Dew point 10°C
Humidity 76%
QNH 1026 hPa
Weather condition n/a